Weather History for KISQ - September, 2013

Change the Weather History Date:

Monday, September 2, 2013

  Actual Average Record
Temperature  
Mean Temperature 54 °F -  
Max Temperature 57 °F 69 °F 84 °F (2011)
Min Temperature 51 °F 50 °F 31 °F (1976)
Degree Days  
Heating Degree Days 11    
Growing Degree Days 4 (Base 50)    
Moisture  
Dew Point 49 °F    
Average Humidity 81    
Maximum Humidity 92    
Minimum Humidity 70    
Precipitation  
Precipitation 0.00 in - - ()
Sea Level Pressure  
Sea Level Pressure 29.88 in    
Wind  
Wind Speed 14 mph (NW)    
Max Wind Speed 20 mph    
Max Gust Speed 28 mph    
Visibility 10 miles    
Events      
Averages and records for this station are not official NWS values.
T = Trace of Precipitation, MM = Missing Value Source: NWS Daily Summary

Daily Weather History Graph

Daily Weather History Graph

Search for Another Location

Airport or City:

Trip Planner

Search our weather history database for the weather conditions in past years. The results will help you decide how hot, cold, wet, or windy it might be!

Date:

Astronomy

Sep. 02, 2013 Rise Set
Actual Time 7:07 AM EDT 8:20 PM EDT
Civil Twilight 6:36 AM EDT 8:51 PM EDT
Nautical Twilight 5:59 AM EDT 9:28 PM EDT
Astronomical Twilight 5:19 AM EDT 10:07 PM EDT
Moon 4:17 AM EDT (9/2) 6:37 PM EDT (9/2)
Length of Visible Light 14h 15m
Length of Day
13h 13m
Waning Crescent, 8% of the Moon is Illuminated
Sep 2
Waning Crescent
Sep 5
New
Sep 12
First Quarter
Sep 19
Full
Sep 26
Last Quarter

Hourly Weather History & Observations

Time (EDT) Temp. Dew Point Humidity Pressure Visibility Wind Dir Wind Speed Gust Speed Precip Events Conditions
12:14 AM 54.0 °F 51.1 °F 90% 29.79 in 10.0 mi NW 13.8 mph 26.5 mph N/A   Overcast
12:35 AM 54.0 °F 50.9 °F 89% 29.80 in 10.0 mi NNW 13.8 mph 23.0 mph N/A   Overcast
12:54 AM 53.8 °F 50.5 °F 89% 29.80 in 10.0 mi NNW 15.0 mph 23.0 mph N/A   Overcast
1:14 AM 53.6 °F 49.5 °F 86% 29.80 in 10.0 mi NW 13.8 mph 23.0 mph N/A   Overcast
1:35 AM 53.6 °F 50.0 °F 88% 29.81 in 10.0 mi NW 12.7 mph - N/A   Overcast
1:54 AM 53.6 °F 50.2 °F 88% 29.81 in 10.0 mi NW 17.3 mph 23.0 mph N/A   Overcast
2:14 AM 53.4 °F 48.6 °F 84% 29.81 in 10.0 mi NW 13.8 mph 25.3 mph N/A   Overcast
2:34 AM 53.1 °F 48.4 °F 84% 29.81 in 10.0 mi NW 19.6 mph 27.6 mph N/A   Overcast
2:54 AM 53.1 °F 48.2 °F 84% 29.81 in 10.0 mi NW 12.7 mph 26.5 mph N/A   Overcast
3:15 AM 52.9 °F 48.2 °F 84% 29.81 in 10.0 mi NW 19.6 mph 24.2 mph N/A   Overcast
3:34 AM 52.7 °F 48.2 °F 85% 29.82 in 10.0 mi NW 12.7 mph 24.2 mph N/A   Overcast
3:54 AM 52.7 °F 48.2 °F 85% 29.82 in 10.0 mi NW 13.8 mph 24.2 mph N/A   Overcast
4:15 AM 52.7 °F 47.8 °F 84% 29.82 in 10.0 mi NW 18.4 mph 24.2 mph N/A   Overcast
4:34 AM 52.7 °F 47.8 °F 84% 29.82 in 10.0 mi NW 11.5 mph 20.7 mph N/A   Overcast
4:54 AM 52.3 °F 48.2 °F 86% 29.83 in 10.0 mi NW 15.0 mph 19.6 mph N/A   Overcast
5:14 AM 51.6 °F 48.7 °F 90% 29.83 in 10.0 mi NNW 10.4 mph - N/A   Overcast
5:34 AM 51.3 °F 49.1 °F 92% 29.83 in 10.0 mi NW 8.1 mph - N/A   Overcast
5:55 AM 51.8 °F 48.7 °F 89% 29.83 in 10.0 mi NW 9.2 mph 17.3 mph N/A   Overcast
6:14 AM 51.8 °F 48.7 °F 89% 29.83 in 7.0 mi NW 12.7 mph 17.3 mph N/A   Overcast
6:34 AM 51.8 °F 48.6 °F 89% 29.83 in 10.0 mi NW 12.7 mph 19.6 mph N/A   Overcast
6:55 AM 52.0 °F 48.2 °F 87% 29.84 in 10.0 mi NW 17.3 mph 23.0 mph N/A   Overcast
7:14 AM 52.5 °F 47.7 °F 84% 29.84 in 10.0 mi NW 13.8 mph 21.9 mph N/A   Overcast
7:35 AM 52.7 °F 47.7 °F 83% 29.85 in 10.0 mi NW 13.8 mph 20.7 mph N/A   Overcast
7:54 AM 52.7 °F 47.3 °F 82% 29.85 in 10.0 mi NW 18.4 mph 25.3 mph N/A   Overcast
8:14 AM 52.7 °F 47.3 °F 82% 29.85 in 10.0 mi NW 13.8 mph 25.3 mph N/A   Overcast
8:35 AM 53.2 °F 47.5 °F 81% 29.86 in 10.0 mi NW 17.3 mph 24.2 mph N/A   Overcast
8:54 AM 53.6 °F 47.7 °F 80% 29.86 in 10.0 mi NW 10.4 mph 20.7 mph N/A   Overcast
9:14 AM 54.1 °F 47.8 °F 79% 29.86 in 10.0 mi NW 15.0 mph 24.2 mph N/A   Overcast
9:35 AM 54.0 °F 47.8 °F 80% 29.87 in 10.0 mi NW 15.0 mph 24.2 mph N/A   Overcast
9:54 AM 54.0 °F 48.2 °F 81% 29.87 in 10.0 mi NW 11.5 mph 23.0 mph N/A   Overcast
10:14 AM 55.4 °F 48.7 °F 78% 29.87 in 10.0 mi NNW 13.8 mph 23.0 mph N/A   Overcast
10:35 AM 55.8 °F 48.7 °F 77% 29.88 in 10.0 mi NNW 16.1 mph 27.6 mph N/A   Overcast
10:54 AM 55.0 °F 48.6 °F 79% 29.88 in 10.0 mi NW 15.0 mph 27.6 mph N/A   Overcast
11:15 AM 55.4 °F 49.3 °F 80% 29.88 in 10.0 mi NNW 13.8 mph 23.0 mph N/A   Overcast
11:34 AM 55.0 °F 49.1 °F 80% 29.88 in 10.0 mi NNW 13.8 mph 24.2 mph N/A   Overcast
11:54 AM 55.0 °F 49.3 °F 81% 29.89 in 10.0 mi NW 13.8 mph 21.9 mph N/A   Overcast
12:15 PM 54.9 °F 50.0 °F 84% 29.89 in 10.0 mi NNW 16.1 mph 21.9 mph N/A   Overcast
12:34 PM 54.9 °F 49.6 °F 83% 29.90 in 10.0 mi NNW 13.8 mph 27.6 mph N/A   Overcast
12:54 PM 55.2 °F 50.0 °F 83% 29.90 in 10.0 mi NW 16.1 mph 23.0 mph N/A   Overcast
1:15 PM 55.4 °F 50.0 °F 82% 29.90 in 10.0 mi NW 13.8 mph 18.4 mph N/A   Overcast
1:34 PM 55.8 °F 50.0 °F 81% 29.89 in 10.0 mi NNW 17.3 mph 27.6 mph N/A   Overcast
1:54 PM 55.8 °F 50.0 °F 81% 29.90 in 10.0 mi NW 16.1 mph 27.6 mph N/A   Overcast
2:15 PM 55.6 °F 49.6 °F 80% 29.90 in 10.0 mi NNW 18.4 mph 26.5 mph N/A   Overcast
2:34 PM 55.8 °F 49.8 °F 80% 29.91 in 10.0 mi NW 18.4 mph 21.9 mph N/A   Overcast
2:55 PM 55.8 °F 50.0 °F 81% 29.91 in 10.0 mi NNW 15.0 mph 21.9 mph N/A   Overcast
3:14 PM 55.4 °F 49.3 °F 80% 29.91 in 10.0 mi NNW 17.3 mph 25.3 mph N/A   Overcast
3:34 PM 55.4 °F 49.1 °F 79% 29.91 in 10.0 mi NNW 12.7 mph 24.2 mph N/A   Overcast
3:55 PM 55.4 °F 48.7 °F 78% 29.91 in 10.0 mi NNW 18.4 mph 25.3 mph N/A   Overcast
4:14 PM 55.4 °F 48.6 °F 78% 29.92 in 10.0 mi NNW 13.8 mph 23.0 mph N/A   Overcast
4:34 PM 55.8 °F 48.4 °F 76% 29.92 in 10.0 mi NW 12.7 mph 19.6 mph N/A   Overcast
4:55 PM 55.9 °F 47.8 °F 74% 29.92 in 10.0 mi NW 16.1 mph 25.3 mph N/A   Overcast
5:14 PM 56.7 °F 47.8 °F 72% 29.92 in 10.0 mi NNW 16.1 mph 27.6 mph N/A   Overcast
5:35 PM 57.0 °F 47.3 °F 70% 29.92 in 10.0 mi NW 16.1 mph 25.3 mph N/A   Overcast
5:54 PM 56.7 °F 47.3 °F 71% 29.93 in 10.0 mi NNW 15.0 mph 21.9 mph N/A   Overcast
6:15 PM 56.5 °F 47.3 °F 71% 29.93 in 10.0 mi NW 15.0 mph 25.3 mph N/A   Overcast
6:34 PM 56.3 °F 47.7 °F 73% 29.93 in 10.0 mi NW 10.4 mph 21.9 mph N/A   Overcast
6:54 PM 56.3 °F 48.0 °F 74% 29.93 in 10.0 mi NNW 10.4 mph 24.2 mph N/A   Overcast
7:15 PM 56.3 °F 47.8 °F 73% 29.93 in 10.0 mi NW 10.4 mph 17.3 mph N/A   Overcast
7:34 PM 55.9 °F 48.2 °F 75% 29.93 in 10.0 mi NW 8.1 mph - N/A   Overcast
7:54 PM 55.9 °F 48.2 °F 75% 29.93 in 10.0 mi NW 9.2 mph - N/A   Overcast
8:15 PM 55.9 °F 48.0 °F 75% 29.93 in 10.0 mi NW 8.1 mph - N/A   Overcast
8:34 PM 55.8 °F 48.2 °F 76% 29.94 in 10.0 mi NW 8.1 mph - N/A   Overcast
8:55 PM 55.9 °F 48.2 °F 75% 29.94 in 10.0 mi NW 9.2 mph - N/A   Overcast
9:14 PM 55.9 °F 48.4 °F 76% 29.94 in 10.0 mi WNW 6.9 mph - N/A   Overcast
9:34 PM 55.9 °F 48.9 °F 77% 29.94 in 10.0 mi NW 6.9 mph - N/A   Overcast
9:55 PM 55.6 °F 49.1 °F 79% 29.94 in 10.0 mi WNW 6.9 mph - N/A   Overcast
10:14 PM 55.6 °F 49.1 °F 79% 29.94 in 10.0 mi WNW 6.9 mph - N/A   Overcast
10:34 PM 55.4 °F 49.1 °F 79% 29.95 in 10.0 mi NW 6.9 mph - N/A   Overcast
10:55 PM 54.5 °F 49.1 °F 82% 29.95 in 10.0 mi WNW 8.1 mph - N/A   Overcast
11:14 PM 55.4 °F 49.1 °F 79% 29.96 in 10.0 mi NNW 8.1 mph - N/A   Overcast
11:34 PM 56.3 °F 49.1 °F 77% 29.95 in 10.0 mi NW 10.4 mph - N/A   Overcast
11:54 PM 55.4 °F 48.7 °F 78% 29.95 in 10.0 mi NW 9.2 mph - N/A   Overcast